Regional Weather Roundup
Issued by NWS Charleston, SC

Current Version | Previous Version | Graphics & Text | Print | Product List | Glossary On
Versions: 1 2 3 4 5 6 7 8 9 10 11 12 13 14 15 16 17 18 19 20 21 22 23 24 25 26 27 28 29 30 31 32 33 34 35 36 37 38 39 40 41 42 43 44 45 46 47 48 49 50
000 ASUS42 KCHS 221527 RWRCHS REGIONAL WEATHER ROUNDUP NATIONAL WEATHER SERVICE CHARLESTON SC 1100 AM EDT MON MAY 22 2017 NOTE: "FAIR" INDICATES FEW OR NO CLOUDS BELOW 12,000 FEET WITH NO SIGNIFICANT WEATHER AND/OR OBSTRUCTIONS TO VISIBILITY. NOT ALL STATIONS ARE QUALITY CONTROLLED. USE DATA WITH CAUTION... ESPECIALLY DEWPOINT OBSERVATIONS. SCZ027-030-031-034>040-042>050-221600- ...SOUTHEAST SOUTH CAROLINA... CITY SKY/WX TMP DP RH WIND PRES REMARKS N CHARLESTON PTSUNNY 81 70 69 SW9 30.08R WATERFRONT PRK N/A 78 73 84 VRB3 30.06S JOHNS ISLAND FAIR 81 73 78 S7 30.08S PINOPOLIS NOT AVBL MONCKS CORNER PTSUNNY 79 72 78 SW8 30.07F SUMMERVILLE PTSUNNY 79 72 78 CALM 30.08F BEAUFORT MCAS PTSUNNY 82 72 71 SW6 30.07S BEAUFORT ARPT FAIR 81 72 74 S5 30.06F HILTON HEAD IS MOSUNNY 81 73 78 S6 30.08S WALTERBORO MOSUNNY 81 70 69 W6 30.08S ALLENDALE PTSUNNY 82 70 65 VRB3 30.05F ...SOUTHERN MIDLANDS AND PEE DEE... CITY SKY/WX TMP DP RH WIND PRES REMARKS GEORGETOWN CLOUDY 79 72 78 W10 30.08S KINGSTREE PTSUNNY 79 70 73 S7 30.06F ORANGEBURG PTSUNNY 79 71 76 SW3 30.07F BARNWELL FAIR 86 72 62 W8 30.06F HX 92 AIKEN FAIR 81 68 65 SW6 30.09F MANNING CLOUDY 81 73 78 S7 30.06F COLUMBIA MOSUNNY 80 71 74 S5 30.05F SUMTER PTSUNNY 79 71 76 SW5 30.05S FLORENCE PTSUNNY 78 73 84 SW8 30.07S MYRTLE BEACH CLOUDY 79 72 78 SW10 30.09S N MYRTLE BEACH CLOUDY 80 71 74 SW16 30.07S $$ GAZ063-065-086>088-099>101-113>116-118-119-134>141-150-221600- ...SOUTHEAST GEORGIA... CITY SKY/WX TMP DP RH WIND PRES REMARKS SAVANNAH ARPT PTSUNNY 83 69 62 VRB3 30.07F HUNTER AAF CLOUDY 83 75 78 SW8 30.05S HX 90 FORT STEWART MOSUNNY 84 70 62 SW8 30.05S STATESBORO PTSUNNY 82 71 68 SW5 30.06F SYLVANIA MOSUNNY 84 70 62 SW5 30.08S CLAXTON PTSUNNY 81 79 95 CALM 30.06F HX 90 ...CSRA...CENTRAL AND FAR SOUTHEAST GEORGIA... CITY SKY/WX TMP DP RH WIND PRES REMARKS THOMSON MOSUNNY 82 68 63 W5 30.10F AUGUSTA-BUSH MOSUNNY 84 70 62 SW3 30.05F AUGUSTA-DANIEL MOSUNNY 83 66 56 SW6 30.07F SWAINSBORO LGT RAIN 77 70 78 W5 30.07F VIDALIA LGT RAIN 75 72 88 NW5 30.07F EASTMAN PTSUNNY 80 63 56 CALM 30.09S HAZLEHURST FAIR 83 74 72 CALM 30.05F HX 90 ALMA MOSUNNY 82 70 66 W6 30.07F WAYCROSS MOSUNNY 84 76 77 W6 30.06F HX 94 JESUP FAIR 82 68 61 S3 30.06F BAXLEY FAIR 81 77 89 S3 30.06F BRUNSWICK MOSUNNY 84 73 70 SW5 30.08S HX 91 SAINT SIMONS CLOUDY 82 72 71 W6 30.07S $$ SCZ027-028-034-036>038-045-046-048>050-GAZ119-141-221600- ...LAKE AND SUPPLEMENTAL COASTAL OBSERVATIONS... STATION/POSITION TIME TEMP WIND PRES WAVE SWELL AIR SEA DIR/SP/G HT/PER HT/PER/DIR (UTC) (F) (DEG/KT/KT) (MB) (FT/S) (FT/S/D) WINYAH BAY 1445 78 220/ 10 1018.0S LAKE MURRAY 1450 78 130/ 1/ 2 1017.3F ACE BASIN NERRS 1445 80 CALM 1019.0R FORT PULASKI 1500 81 79 220/ 6/ 9 1018.3 SAPELO ISLAND 1445 82 230/ 5 1018.0F $$ ANZ835-935-AMZ111-154-330-350-352-354-370-450-454-472-221600- ...C-MAN AND BUOY OBSERVATIONS... STATION/POSITION TIME TEMP WIND PRES WAVE SWELL AIR SEA DIR/SP/G HT/PER HT/PER/DIR (UTC) (F) (DEG/KT/KT) (MB) (FT/S) (FT/S/D) BUOY 41004 1500 77 77 200/ 10/ 14 1018.4 BUOY 41008 1450 78 78 190/ 8/ 10 1018.2F 2/ 5 2/110/ 5 FOLLY BEACH CMAN 1500 79 220/ 9/ 13 1019.3R CAPERS NEARSHORE 1508 80 76 220/ 10/ 16 1018.5R FRIPP NEARSHORE 1508 78 79 220/ 4/ 8 1018.2S STATION/POSITION TIME TEMP WIND PRES WAVE SWELL AIR SEA DIR/SP/G HT/PER HT/PER/DIR (UTC) (F) (DEG/KT/KT) (MB) (FT/S) (FT/S/D) 5E ST. MARYS GA 1500 79 N/A 2/ 4 FRYING PAN BUOY 1510 77 77 220/ 14/ 16 1018.6 BUOY 41025 1450 75 78 170/ 6/ 8 1019.1F 4/ 8 3/ 60/ 8 CAPE LOOKOUT NC 1500 77 220/ 9/ 11 1018.3F BUOY 41002 1450 75 77 240/ 6/ 8 1020.2F 3/ 9 3/ 20/ 9 BUOY 41010 1510 78 79 150/ 8/ 10 1019.8 ST AUGUSTINE FL 1500 78 80 130/ 7/ 7 1019.1F $$

USA.gov is the U.S. government's official web portal to all federal, state and local government web resources and services.